Starlink 3675

operational
NORAD ID: 51963 Int'l Des: 2022-025 Owner: SPXS Country: US Constellation: starlink
LEOCIRCULARSTARLINK_TYPE

About Starlink 3675

Description loading...

Live Position

Loading 3D Globe...

Upcoming Passes

Altitude History

Altitude vs Time

uPlot chart will show altitude changes over time

Two-Line Element Set

1 51963U 22025H 26034.66365197 .00000197 00000-0 18760-4 0 9996
2 51963 53.1618 171.6028 0000966 80.3849 279.7260 15.30195360215967
Epoch: Feb 3, 2026 • Age: 13 hours

Current Status

Altitude 477.3 km
Velocity 7.63 km/s
Sub-Earth Point 35.08°N, 3.68°W
Launch Date Mar 9, 2022
Age 3.9 years
Type internet

Technical Details

Classification Payload
Mass 297.00 kg
Dry Mass 275.00 kg
Total Mass 297.00 kg
Length 0.20 m
Diameter 2.80 m
Span 9.00 m
Shape Box + pan
Manufacturer SPXS
Bus Type Starlink
Phase Status In Orbit
Owner/State SPXS/US

Large Constellations

Loading constellations...